TISAT 1

Last updated on Dec. 9, 2021, 12:03 a.m. UTC

1 36799U 10035E   21342.50098645  .00000872  00000+0  92025-4 0  9990
2 36799  98.1955 180.3482 0012235   8.8535 351.2896 14.92018326619287
UTC
Height (km)
Latitude
Longitude
Inclination
Orbital Period
UTC large
Height (km)
Speed (km/s)
/
Latitude / Longitude
Inclination (degrees)
Orbital Period (minutes)
Azimuth
Elevation
Range (km)
Doppler Factor
iOS Compass Heading
iOS Angle